This is the latest recevied weather packets stored in our database for station/object N6AMQ-1. If no packets are shown the sender has not sent any weather packets the latest 1 day(s).
| Time | Temp. | Humidity | Pressure | Rain* | Wind** | Luminosity | Snow |
|---|---|---|---|---|---|---|---|
| 1778018030 | 17.78° C | 64% | 1015.9 hPa | 0 mm | 1.34 m/s, 315° | - | - |
| 1778017968 | 17.78° C | 65% | 1015.9 hPa | 0 mm | 1.34 m/s, 315° | - | - |
| 1778017368 | 17.22° C | 65% | 1015.9 hPa | 0 mm | 0.89 m/s, 225° | - | - |
| 1778017068 | 17.22° C | 65% | 1015.9 hPa | 0 mm | 0.45 m/s, 270° | - | - |
| 1778016830 | 17.22° C | 64% | 1015.9 hPa | 0 mm | 1.34 m/s, 338° | - | - |
| 1778016768 | 17.22° C | 64% | 1015.9 hPa | 0 mm | 1.79 m/s, 315° | - | - |
| 1778016468 | 17.22° C | 66% | 1015.9 hPa | 0 mm | 0 m/s | - | - |
| 1778016168 | 17.22° C | 66% | 1015.9 hPa | 0 mm | 0.45 m/s, 225° | - | - |
| 1778015868 | 17.22° C | 65% | 1015.9 hPa | 0 mm | 1.34 m/s, 270° | - | - |
| 1778015631 | 17.22° C | 65% | 1015.9 hPa | 0 mm | 1.34 m/s, 22° | - | - |
| 1778015568 | 17.22° C | 65% | 1015.9 hPa | 0 mm | 1.34 m/s, 270° | - | - |
| 1778015268 | 17.22° C | 66% | 1015.9 hPa | 0 mm | 1.34 m/s, 292° | - | - |
| 1778014968 | 17.22° C | 65% | 1015.9 hPa | 0 mm | 0.89 m/s, 292° | - | - |
| 1778014668 | 17.22° C | 65% | 1015.9 hPa | 0 mm | 1.34 m/s, 338° | - | - |
| 1778014430 | 17.22° C | 65% | 1015.9 hPa | 0 mm | 0.89 m/s, 112° | - | - |
| 1778014068 | 17.22° C | 66% | 1015.9 hPa | 0 mm | 0.45 m/s, 315° | - | - |
| 1778013230 | 17.22° C | 67% | 1015.9 hPa | 0 mm | 0.89 m/s, 315° | - | - |
| 1778013168 | 17.22° C | 66% | 1015.9 hPa | 0 mm | 0.89 m/s, 338° | - | - |
| 1778012868 | 17.22° C | 67% | 1015.9 hPa | 0 mm | 0.89 m/s, 270° | - | - |
| 1778012568 | 17.22° C | 66% | 1016.9 hPa | 0 mm | 0.89 m/s, 315° | - | - |
| 1778012268 | 17.22° C | 66% | 1016.9 hPa | 0 mm | 0 m/s | - | - |
| 1778012030 | 17.22° C | 65% | 1016.9 hPa | 0 mm | 1.34 m/s, 270° | - | - |
| 1778011968 | 17.22° C | 66% | 1016.9 hPa | 0 mm | 0.89 m/s, 292° | - | - |
| 1778011668 | 17.22° C | 67% | 1016.9 hPa | 0 mm | 0 m/s | - | - |
| 1778010830 | 16.67° C | 68% | 1016.9 hPa | 0 mm | 0.45 m/s, 112° | - | - |
* Rain latest hour (hover to see other rain measurements)
** Current wind speed in m/s (hover to see current wind gust speed)